Date,TemperatureHighF,TemperatureAvgF,TemperatureLowF,DewpointHighF,DewpointAvgF,DewpointLowF,HumidityHigh,HumidityAvg,HumidityLow,PressureMaxIn,PressureMinIn,WindSpeedMaxMPH,WindSpeedAvgMPH,GustSpeedMaxMPH,PrecipitationSumIn
2013-3-1,31.8,28.7,26.4,25.0,20.9,18.0,83,77,71,30.10,29.95,14,5,0,2.00
2013-3-2,28.7,26.8,25.1,21.0,19.3,17.0,84,78,72,30.08,30.04,9,3,0,0.00
2013-3-3,34.5,25.5,18.3,18.0,15.2,12.0,91,70,46,30.06,29.98,14,3,0,1.00
2013-3-4,87.5,26.1,14.9,20.0,15.4,10.0,91,69,40,30.15,27.79,7,1,0,1.00
2013-3-5,37.9,29.5,21.2,25.0,21.7,17.0,93,77,59,30.13,29.82,14,5,0,1.00
2013-3-6,41.7,34.5,28.4,30.0,26.4,22.0,88,76,61,30.20,29.83,11,4,0,0.00
2013-3-7,39.1,34.5,26.7,31.0,26.1,19.0,87,75,60,30.39,30.19,10,2,0,0.00
2013-3-8,47.2,33.2,22.4,29.0,23.1,17.0,87,71,46,30.48,30.38,11,1,0,0.00
2013-3-9,44.9,36.1,24.8,32.0,28.2,23.0,94,77,58,30.42,30.05,21,3,0,0.00
2013-3-10,64.1,49.9,33.9,48.0,38.4,30.0,91,67,48,30.04,29.81,9,2,0,0.00
2013-3-11,56.7,50.9,39.0,50.0,44.3,32.0,95,80,59,29.83,29.49,18,5,0,3.00
2013-3-12,39.0,36.0,30.2,33.0,29.2,24.0,89,80,68,29.93,29.71,12,5,0,4.00
2013-3-13,35.0,30.8,27.1,29.0,21.1,12.0,90,72,55,30.19,29.86,17,6,0,5.00
2013-3-14,44.5,33.2,23.1,23.0,18.3,11.0,79,57,36,30.25,30.08,11,4,0,0.00
2013-3-15,42.7,36.9,31.4,36.0,29.2,20.0,96,77,56,30.09,29.85,15,3,0,6.00
2013-3-16,35.9,31.6,29.1,35.0,27.0,20.0,96,86,70,30.04,29.76,6,0,0,1.00
2013-3-17,35.5,28.6,19.6,24.0,16.5,12.0,88,65,48,30.26,30.04,12,3,0,7.00
2013-3-18,36.8,32.0,24.0,36.0,27.6,14.0,98,86,72,30.18,29.56,15,6,0,4.00
2013-3-19,36.3,29.0,24.9,32.0,18.3,13.0,87,69,58,29.94,29.62,30,9,0,4.00
2013-3-20,31.8,26.9,19.4,18.0,13.7,7.0,76,62,49,29.95,29.88,21,6,0,0.00
2013-3-21,34.1,26.0,17.0,23.0,17.1,8.0,85,74,59,29.94,29.86,14,5,0,0.00
2013-3-22,43.3,33.1,27.8,24.0,20.0,16.0,81,62,42,30.02,29.93,10,4,0,0.00
2013-3-23,43.1,31.8,22.8,26.0,22.3,20.0,93,72,49,30.10,30.01,9,2,0,0.00
2013-3-24,39.0,32.1,24.9,27.0,23.2,19.0,91,74,50,30.05,29.63,17,4,0,0.00
2013-3-25,40.9,36.0,31.8,29.0,25.7,23.0,85,70,58,29.91,29.57,25,7,0,0.00
2013-3-26,47.0,38.5,34.3,32.0,28.2,25.0,81,70,49,30.11,29.91,14,4,0,0.00
2013-3-27,49.9,40.1,31.2,31.0,27.0,24.0,85,62,39,30.20,30.11,16,5,0,0.00
2013-3-28,55.7,43.9,31.4,32.0,27.3,22.0,79,52,31,30.26,30.20,12,4,0,1.00
2013-3-29,55.8,41.3,30.7,30.0,24.2,21.0,72,51,24,30.28,30.18,10,2,0,1.00
2013-3-30,58.4,43.8,27.6,32.0,26.5,21.0,82,51,19,30.22,29.94,11,2,0,0.00
2013-3-31,61.8,47.3,35.5,45.0,35.2,29.0,91,65,30,29.94,29.62,16,4,0,3.00